| time (UTC) | temp C | wind direction | speed KPH | gust KPH | rain 1hr cm | rain 24hr cm | rain mn cm | humidity % | barometer mb |
| 20260509162059 | 20 | 269 | 12.9 | 20.9 | 0.00 | 0.00 | 0.00 | 68 | 1003.8 |
| 20260509161557 | 20 | 229 | 14.5 | 22.5 | 0.00 | 0.00 | 0.00 | 68 | 1003.9 |
| 20260509161057 | 20 | 234 | 16.1 | 29.0 | 0.00 | 0.00 | 0.00 | 68 | 1004.0 |
| 20260509160556 | 19 | 240 | 16.1 | 29.0 | 0.00 | 0.00 | 0.00 | 69 | 1004.1 |
| 20260509160057 | 19 | 220 | 16.1 | 27.4 | 0.00 | 0.00 | 0.00 | 69 | 1004.1 |
| 20260509155556 | 19 | 242 | 16.1 | 27.4 | 0.00 | 0.00 | 0.00 | 69 | 1004.1 |
| 20260509155054 | 19 | 217 | 16.1 | 27.4 | 0.00 | 0.00 | 0.00 | 69 | 1004.0 |
| 20260509154553 | 18 | 254 | 14.5 | 30.6 | 0.00 | 0.00 | 0.00 | 70 | 1004.1 |
| 20260509154052 | 18 | 234 | 14.5 | 33.8 | 0.00 | 0.00 | 0.00 | 72 | 1004.1 |
| 20260509153552 | 18 | 201 | 19.3 | 33.8 | 0.00 | 0.00 | 0.00 | 71 | 1004.2 |
| 20260509153051 | 18 | 225 | 17.7 | 27.4 | 0.00 | 0.00 | 0.00 | 71 | 1004.2 |
| 20260509152553 | 18 | 202 | 16.1 | 24.1 | 0.00 | 0.00 | 0.00 | 72 | 1004.2 |
| 20260509152051 | 18 | 258 | 16.1 | 24.1 | 0.00 | 0.00 | 0.00 | 72 | 1004.2 |
| 20260509151547 | 18 | 221 | 14.5 | 25.7 | 0.00 | 0.00 | 0.00 | 74 | 1004.3 |
| 20260509151051 | 17 | 221 | 16.1 | 25.7 | 0.00 | 0.00 | 0.00 | 73 | 1004.3 |
| 20260509150546 | 17 | 229 | 16.1 | 25.7 | 0.00 | 0.00 | 0.00 | 74 | 1004.3 |
| 20260509145545 | 17 | 265 | 16.1 | 27.4 | 0.00 | 0.00 | 0.00 | 73 | 1004.3 |
| 20260509145049 | 17 | 220 | 16.1 | 27.4 | 0.00 | 0.00 | 0.00 | 74 | 1004.2 |
| 20260509144634 | 17 | 257 | 16.1 | 27.4 | 0.00 | 0.00 | 0.00 | 75 | 1004.1 |
| 20260509144047 | 17 | 234 | 16.1 | 27.4 | 0.00 | 0.00 | 0.00 | 75 | 1004.0 |
| 20260509143541 | 17 | 238 | 16.1 | 27.4 | 0.00 | 0.00 | 0.00 | 76 | 1003.9 |
| 20260509143047 | 16 | 226 | 16.1 | 25.7 | 0.00 | 0.00 | 0.00 | 74 | 1004.0 |
| 20260509142543 | 16 | 229 | 14.5 | 27.4 | 0.00 | 0.00 | 0.00 | 76 | 1004.0 |
| 20260509142039 | 16 | 246 | 17.7 | 27.4 | 0.00 | 0.00 | 0.00 | 75 | 1004.0 |
| 20260509141543 | 16 | 217 | 16.1 | 29.0 | 0.00 | 0.00 | 0.00 | 78 | 1003.8 |
| 20260509141037 | 16 | 243 | 17.7 | 29.0 | 0.00 | 0.00 | 0.00 | 76 | 1003.9 |
| 20260509140537 | 16 | 221 | 17.7 | 30.6 | 0.00 | 0.00 | 0.00 | 80 | 1003.9 |
| 20260509140036 | 16 | 257 | 16.1 | 30.6 | 0.00 | 0.00 | 0.00 | 80 | 1004.0 |
| 20260509135535 | 16 | 207 | 14.5 | 25.7 | 0.00 | 0.00 | 0.00 | 81 | 1004.1 |
| 20260509135034 | 15 | 200 | 19.3 | 25.7 | 0.00 | 0.00 | 0.00 | 82 | 1004.1 |
| 20260509134534 | 15 | 235 | 17.7 | 25.7 | 0.00 | 0.00 | 0.00 | 82 | 1004.2 |
| 20260509134033 | 15 | 217 | 16.1 | 24.1 | 0.00 | 0.00 | 0.00 | 84 | 1004.2 |
| 20260509133534 | 15 | 219 | 12.9 | 24.1 | 0.00 | 0.00 | 0.00 | 87 | 1004.1 |
| 20260509133030 | 14 | 241 | 11.3 | 24.1 | 0.00 | 0.00 | 0.00 | 88 | 1004.1 |
| 20260509132528 | 13 | 226 | 17.7 | 22.5 | 0.00 | 0.00 | 0.00 | 87 | 1004.2 |
| 20260509132027 | 13 | 213 | 16.1 | 24.1 | 0.00 | 0.00 | 0.00 | 88 | 1004.3 |
| 20260509131533 | 13 | 198 | 11.3 | 22.5 | 0.00 | 0.00 | 0.00 | 90 | 1004.3 |
| 20260509131025 | 13 | 225 | 16.1 | 22.5 | 0.00 | 0.00 | 0.00 | 90 | 1004.4 |
| 20260509130524 | 13 | 204 | 12.9 | 22.5 | 0.00 | 0.00 | 0.00 | 90 | 1004.5 |
| 20260509130024 | 13 | 237 | 12.9 | 20.9 | 0.00 | 0.00 | 0.00 | 91 | 1004.4 |
| 20260509125522 | 12 | 211 | 12.9 | 20.9 | 0.00 | 0.00 | 0.00 | 91 | 1004.4 |
| 20260509125023 | 12 | 211 | 12.9 | 20.9 | 0.00 | 0.00 | 0.00 | 91 | 1004.5 |
| 20260509124522 | 12 | 248 | 9.7 | 16.1 | 0.00 | 0.00 | 0.00 | 92 | 1004.7 |
| 20260509124021 | 12 | 232 | 9.7 | 17.7 | 0.00 | 0.00 | 0.00 | 93 | 1004.7 |
| 20260509123520 | 12 | 222 | 8.0 | 16.1 | 0.00 | 0.00 | 0.00 | 93 | 1004.6 |
| 20260509123020 | 12 | 223 | 9.7 | 17.7 | 0.00 | 0.00 | 0.00 | 94 | 1004.4 |
| 20260509122519 | 12 | 175 | 11.3 | 17.7 | 0.00 | 0.00 | 0.00 | 94 | 1004.1 |
| 20260509122019 | 11 | 184 | 12.9 | 17.7 | 0.00 | 0.00 | 0.00 | 94 | 1003.9 |
| 20260509121524 | 11 | 166 | 11.3 | 16.1 | 0.00 | 0.00 | 0.00 | 94 | 1003.8 |
| 20260509121017 | 11 | 178 | 11.3 | 17.7 | 0.00 | 0.00 | 0.00 | 95 | 1003.8 |
| 20260509120517 | 11 | 188 | 11.3 | 17.7 | 0.00 | 0.00 | 0.00 | 94 | 1003.8 |
| 20260509120017 | 11 | 185 | 12.9 | 17.7 | 0.00 | 0.00 | 0.00 | 94 | 1003.7 |
| 20260509115516 | 11 | 193 | 11.3 | 14.5 | 0.00 | 0.03 | 0.00 | 94 | 1003.8 |
| 20260509115016 | 11 | 169 | 9.7 | 14.5 | 0.00 | 0.03 | 0.00 | 94 | 1003.8 |
| 20260509114516 | 11 | 180 | 9.7 | 19.3 | 0.00 | 0.03 | 0.00 | 95 | 1003.8 |
| 20260509114016 | 11 | 176 | 12.9 | 19.3 | 0.00 | 0.03 | 0.00 | 95 | 1003.7 |
| 20260509113515 | 11 | 189 | 14.5 | 20.9 | 0.00 | 0.03 | 0.00 | 94 | 1003.7 |
| 20260509113015 | 11 | 182 | 11.3 | 17.7 | 0.00 | 0.03 | 0.00 | 94 | 1003.8 |
| 20260509112515 | 11 | 207 | 12.9 | 17.7 | 0.00 | 0.03 | 0.00 | 94 | 1003.8 |
| 20260509112015 | 11 | 188 | 11.3 | 24.1 | 0.00 | 0.03 | 0.00 | 94 | 1003.9 |
| 20260509111514 | 11 | 189 | 16.1 | 24.1 | 0.00 | 0.03 | 0.00 | 94 | 1003.7 |
| 20260509111015 | 11 | 200 | 12.9 | 20.9 | 0.00 | 0.03 | 0.00 | 94 | 1003.8 |
| 20260509110514 | 11 | 209 | 12.9 | 20.9 | 0.00 | 0.03 | 0.00 | 94 | 1003.8 |
| 20260509110014 | 10 | 200 | 11.3 | 20.9 | 0.00 | 0.03 | 0.00 | 94 | 1003.8 |
| 20260509105514 | 10 | 197 | 12.9 | 20.9 | 0.00 | 0.13 | 0.00 | 94 | 1003.8 |
| 20260509105015 | 10 | 185 | 12.9 | 19.3 | 0.00 | 0.13 | 0.00 | 94 | 1003.6 |
| 20260509104529 | 10 | 190 | 12.9 | 19.3 | 0.00 | 0.13 | 0.00 | 94 | 1003.8 |
| 20260509104013 | 10 | 205 | 12.9 | 20.9 | 0.00 | 0.13 | 0.00 | 94 | 1003.8 |
| 20260509103512 | 10 | 181 | 12.9 | 20.9 | 0.00 | 0.13 | 0.00 | 94 | 1003.9 |
| 20260509103012 | 10 | 192 | 11.3 | 20.9 | 0.00 | 0.13 | 0.00 | 94 | 1003.9 |
| 20260509102511 | 10 | 201 | 14.5 | 20.9 | 0.00 | 0.13 | 0.00 | 94 | 1003.9 |
| 20260509102011 | 9 | 181 | 11.3 | 14.5 | 0.00 | 0.13 | 0.00 | 94 | 1003.9 |
| 20260509101513 | 9 | 170 | 8.0 | 11.3 | 0.00 | 0.13 | 0.00 | 93 | 1003.9 |
| 20260509101011 | 8 | 170 | 6.4 | 9.7 | 0.00 | 0.13 | 0.00 | 93 | 1003.9 |
| 20260509100508 | 8 | 169 | 6.4 | 9.7 | 0.00 | 0.13 | 0.00 | 92 | 1003.9 |
| 20260509100015 | 9 | 165 | 6.4 | 9.7 | 0.00 | 0.13 | 0.00 | 93 | 1003.9 |
| 20260509095506 | 9 | 177 | 6.4 | 11.3 | 0.00 | 0.23 | 0.00 | 92 | 1004.0 |
| 20260509095006 | 10 | 177 | 6.4 | 12.9 | 0.00 | 0.23 | 0.00 | 92 | 1004.1 |
| 20260509094516 | 10 | 191 | 8.0 | 12.9 | 0.00 | 0.23 | 0.00 | 93 | 1004.2 |
| 20260509094005 | 10 | 188 | 8.0 | 11.3 | 0.00 | 0.23 | 0.00 | 93 | 1004.2 |
| 20260509093505 | 10 | 184 | 8.0 | 11.3 | 0.00 | 0.23 | 0.00 | 94 | 1004.2 |
| 20260509093005 | 9 | 188 | 6.4 | 9.7 | 0.00 | 0.23 | 0.00 | 93 | 1004.2 |
| 20260509092504 | 9 | 169 | 6.4 | 9.7 | 0.00 | 0.23 | 0.00 | 93 | 1004.2 |
| 20260509092004 | 9 | 182 | 6.4 | 9.7 | 0.00 | 0.23 | 0.00 | 93 | 1004.2 |
| 20260509091503 | 9 | 167 | 4.8 | 9.7 | 0.00 | 0.23 | 0.00 | 92 | 1004.2 |
| 20260509091003 | 9 | 171 | 6.4 | 11.3 | 0.00 | 0.23 | 0.00 | 92 | 1004.2 |
| 20260509090503 | 9 | 164 | 6.4 | 12.9 | 0.00 | 0.23 | 0.00 | 92 | 1004.1 |
| 20260509090003 | 9 | 181 | 8.0 | 12.9 | 0.00 | 0.23 | 0.00 | 92 | 1004.2 |
| 20260509085502 | 9 | 177 | 6.4 | 9.7 | 0.00 | 0.23 | 0.00 | 91 | 1004.1 |
| 20260509085004 | 10 | 166 | 6.4 | 12.9 | 0.00 | 0.23 | 0.00 | 91 | 1004.1 |
| 20260509084502 | 10 | 177 | 6.4 | 17.7 | 0.00 | 0.23 | 0.00 | 91 | 1004.1 |
| 20260509084002 | 10 | 189 | 9.7 | 17.7 | 0.00 | 0.23 | 0.00 | 92 | 1004.0 |
| 20260509083501 | 10 | 201 | 9.7 | 14.5 | 0.00 | 0.23 | 0.00 | 93 | 1004.1 |
| 20260509083101 | 10 | 198 | 11.3 | 14.5 | 0.00 | 0.23 | 0.00 | 93 | 1004.1 |
| 20260509082600 | 10 | 192 | 8.0 | 12.9 | 0.00 | 0.23 | 0.00 | 92 | 1004.2 |
| 20260509082100 | 10 | 188 | 9.7 | 12.9 | 0.00 | 0.23 | 0.00 | 92 | 1004.2 |
| 20260509081559 | 10 | 204 | 9.7 | 11.3 | 0.00 | 0.23 | 0.00 | 93 | 1004.3 |
| 20260509081058 | 9 | 185 | 8.0 | 11.3 | 0.00 | 0.23 | 0.00 | 92 | 1004.3 |
| 20260509080557 | 9 | 188 | 6.4 | 11.3 | 0.00 | 0.23 | 0.00 | 92 | 1004.3 |
| 20260509080100 | 9 | 178 | 6.4 | 9.7 | 0.00 | 0.23 | 0.00 | 92 | 1004.4 |
| 20260509075557 | 9 | 181 | 6.4 | 8.0 | 0.00 | 0.23 | 0.00 | 91 | 1004.4 |
| 20260509075057 | 10 | 197 | 4.8 | 9.7 | 0.00 | 0.23 | 0.00 | 91 | 1004.4 |
| 20260509074600 | 10 | 197 | 6.4 | 9.7 | 0.00 | 0.23 | 0.00 | 92 | 1004.5 |
| 20260509074056 | 10 | 212 | 6.4 | 8.0 | 0.00 | 0.23 | 0.00 | 92 | 1004.6 |
| 20260509073556 | 10 | 214 | 4.8 | 8.0 | 0.00 | 0.23 | 0.00 | 92 | 1004.5 |
| 20260509073058 | 10 | 199 | 4.8 | 8.0 | 0.00 | 0.23 | 0.00 | 92 | 1004.4 |
| 20260509072557 | 10 | 199 | 4.8 | 8.0 | 0.00 | 0.23 | 0.00 | 92 | 1004.4 |
| 20260509072055 | 10 | 178 | 6.4 | 8.0 | 0.00 | 0.23 | 0.00 | 91 | 1004.2 |
| 20260509071608 | 10 | 186 | 4.8 | 8.0 | 0.00 | 0.23 | 0.00 | 91 | 1004.3 |
| 20260509071100 | 10 | 191 | 6.4 | 9.7 | 0.00 | 0.23 | 0.00 | 92 | 1004.3 |
| 20260509070558 | 10 | 188 | 6.4 | 9.7 | 0.00 | 0.23 | 0.00 | 92 | 1004.4 |
| 20260509070056 | 10 | 186 | 4.8 | 8.0 | 0.00 | 0.23 | 0.00 | 91 | 1004.5 |
| 20260509065553 | 10 | 167 | 4.8 | 8.0 | 0.00 | 0.23 | 0.00 | 91 | 1004.5 |
| 20260509065057 | 10 | 167 | 4.8 | 8.0 | 0.00 | 0.23 | 0.00 | 91 | 1004.5 |
| 20260509064555 | 10 | 167 | 4.8 | 8.0 | 0.00 | 0.23 | 0.00 | 90 | 1004.6 |
| 20260509064050 | 10 | 167 | 4.8 | 8.0 | 0.00 | 0.23 | 0.00 | 89 | 1004.7 |
| 20260509063548 | 10 | 181 | 4.8 | 8.0 | 0.00 | 0.23 | 0.00 | 90 | 1004.7 |
| 20260509063049 | 10 | 181 | 6.4 | 9.7 | 0.00 | 0.23 | 0.00 | 90 | 1004.6 |
| 20260509062547 | 10 | 181 | 6.4 | 9.7 | 0.00 | 0.23 | 0.00 | 90 | 1004.8 |
| 20260509062047 | 10 | 181 | 6.4 | 9.7 | 0.00 | 0.23 | 0.00 | 90 | 1004.9 |
| 20260509061550 | 10 | 178 | 6.4 | 9.7 | 0.00 | 0.23 | 0.00 | 89 | 1004.9 |
| 20260509061043 | 11 | 188 | 6.4 | 9.7 | 0.00 | 0.23 | 0.00 | 89 | 1005.1 |
| 20260509060543 | 11 | 192 | 6.4 | 9.7 | 0.00 | 0.23 | 0.00 | 89 | 1005.0 |
| 20260509060052 | 11 | 192 | 6.4 | 9.7 | 0.00 | 0.23 | 0.00 | 89 | 1005.0 |
| 20260509055543 | 11 | 200 | 6.4 | 9.7 | 0.00 | 0.23 | 0.00 | 89 | 1005.2 |
| 20260509055041 | 11 | 211 | 6.4 | 11.3 | 0.00 | 0.23 | 0.00 | 88 | 1005.2 |
| 20260509054549 | 11 | 192 | 8.0 | 11.3 | 0.00 | 0.23 | 0.00 | 88 | 1005.2 |
| 20260509054043 | 11 | 202 | 4.8 | 9.7 | 0.00 | 0.23 | 0.00 | 88 | 1005.2 |
| 20260509053539 | 11 | 202 | 6.4 | 11.3 | 0.00 | 0.23 | 0.00 | 87 | 1005.2 |
| 20260509053039 | 11 | 202 | 8.0 | 11.3 | 0.00 | 0.23 | 0.00 | 87 | 1005.2 |
| 20260509052538 | 11 | 209 | 8.0 | 11.3 | 0.00 | 0.23 | 0.00 | 87 | 1005.2 |
| 20260509052037 | 11 | 204 | 8.0 | 11.3 | 0.00 | 0.23 | 0.00 | 87 | 1005.1 |
| 20260509051539 | 11 | 203 | 8.0 | 12.9 | 0.00 | 0.23 | 0.00 | 87 | 1005.2 |
| 20260509051036 | 11 | 209 | 8.0 | 12.9 | 0.00 | 0.23 | 0.00 | 87 | 1005.2 |
| 20260509050536 | 11 | 207 | 8.0 | 12.9 | 0.00 | 0.23 | 0.00 | 87 | 1005.2 |
| 20260509050047 | 12 | 215 | 6.4 | 11.3 | 0.00 | 0.23 | 0.00 | 87 | 1005.2 |
| 20260509045534 | 12 | 205 | 8.0 | 11.3 | 0.00 | 0.23 | 0.23 | 87 | 1005.1 |
| 20260509045034 | 12 | 179 | 8.0 | 12.9 | 0.00 | 0.23 | 0.23 | 86 | 1005.1 |
| 20260509044543 | 12 | 194 | 8.0 | 12.9 | 0.00 | 0.23 | 0.23 | 86 | 1005.2 |
| 20260509044034 | 12 | 206 | 8.0 | 12.9 | 0.00 | 0.23 | 0.23 | 85 | 1005.4 |
| 20260509043532 | 12 | 204 | 8.0 | 12.9 | 0.00 | 0.23 | 0.23 | 85 | 1005.5 |
| 20260509043033 | 12 | 207 | 8.0 | 16.1 | 0.00 | 0.23 | 0.23 | 85 | 1005.5 |
| 20260509042532 | 12 | 212 | 9.7 | 16.1 | 0.00 | 0.23 | 0.23 | 85 | 1005.5 |
| 20260509042032 | 12 | 211 | 9.7 | 16.1 | 0.00 | 0.23 | 0.23 | 85 | 1005.6 |
| 20260509041532 | 12 | 214 | 8.0 | 16.1 | 0.00 | 0.23 | 0.23 | 85 | 1005.6 |
| 20260509041032 | 12 | 214 | 9.7 | 16.1 | 0.00 | 0.23 | 0.23 | 85 | 1005.6 |
| 20260509040534 | 12 | 217 | 6.4 | 11.3 | 0.00 | 0.23 | 0.23 | 85 | 1005.8 |
| 20260509040032 | 12 | 208 | 8.0 | 11.3 | 0.00 | 0.23 | 0.23 | 85 | 1005.8 |
| 20260509035533 | 12 | 209 | 8.0 | 11.3 | 0.00 | 0.23 | 0.23 | 85 | 1005.8 |
| 20260509035032 | 12 | 211 | 6.4 | 11.3 | 0.00 | 0.23 | 0.23 | 85 | 1005.8 |
| 20260509034532 | 12 | 231 | 8.0 | 11.3 | 0.00 | 0.23 | 0.23 | 85 | 1005.8 |
| 20260509034031 | 12 | 205 | 6.4 | 14.5 | 0.00 | 0.23 | 0.23 | 85 | 1005.9 |
| 20260509033533 | 13 | 208 | 8.0 | 14.5 | 0.00 | 0.23 | 0.23 | 85 | 1005.8 |
| 20260509033031 | 13 | 207 | 8.0 | 12.9 | 0.00 | 0.23 | 0.23 | 84 | 1005.8 |
| 20260509032531 | 13 | 193 | 8.0 | 12.9 | 0.00 | 0.23 | 0.23 | 84 | 1005.8 |
| 20260509032034 | 13 | 195 | 9.7 | 12.9 | 0.00 | 0.23 | 0.23 | 85 | 1005.8 |
| 20260509031532 | 13 | 182 | 8.0 | 11.3 | 0.00 | 0.23 | 0.23 | 85 | 1005.9 |
| 20260509031030 | 13 | 188 | 6.4 | 12.9 | 0.00 | 0.23 | 0.23 | 84 | 1005.8 |
| 20260509030534 | 13 | 192 | 8.0 | 12.9 | 0.00 | 0.23 | 0.23 | 84 | 1005.9 |
| 20260509030033 | 13 | 186 | 8.0 | 12.9 | 0.00 | 0.23 | 0.23 | 84 | 1005.9 |
| 20260509025529 | 13 | 192 | 8.0 | 12.9 | 0.00 | 0.23 | 0.23 | 83 | 1005.9 |
| 20260509025029 | 13 | 188 | 8.0 | 12.9 | 0.00 | 0.23 | 0.23 | 83 | 1006.0 |
| 20260509024530 | 13 | 179 | 8.0 | 12.9 | 0.00 | 0.23 | 0.23 | 83 | 1005.9 |
| 20260509024031 | 13 | 182 | 9.7 | 14.5 | 0.00 | 0.23 | 0.23 | 83 | 1005.9 |
| 20260509023528 | 13 | 202 | 8.0 | 11.3 | 0.00 | 0.23 | 0.23 | 83 | 1006.0 |
| 20260509023031 | 13 | 191 | 8.0 | 12.9 | 0.00 | 0.23 | 0.23 | 82 | 1005.9 |
| 20260509022529 | 13 | 211 | 8.0 | 14.5 | 0.00 | 0.23 | 0.23 | 81 | 1005.8 |
| 20260509022029 | 13 | 197 | 8.0 | 14.5 | 0.00 | 0.23 | 0.23 | 81 | 1005.8 |
| 20260509021529 | 13 | 184 | 9.7 | 16.1 | 0.00 | 0.23 | 0.23 | 81 | 1005.7 |
| 20260509021033 | 14 | 194 | 11.3 | 17.7 | 0.00 | 0.23 | 0.23 | 80 | 1005.7 |
| 20260509020532 | 14 | 206 | 11.3 | 17.7 | 0.00 | 0.23 | 0.23 | 80 | 1005.7 |
| 20260509020028 | 14 | 198 | 11.3 | 17.7 | 0.00 | 0.23 | 0.23 | 80 | 1005.7 |
| 20260509015528 | 14 | 206 | 11.3 | 17.7 | 0.00 | 0.23 | 0.23 | 79 | 1005.6 |
| 20260509015028 | 14 | 190 | 11.3 | 16.1 | 0.00 | 0.23 | 0.23 | 79 | 1005.4 |
| 20260509014528 | 14 | 198 | 9.7 | 14.5 | 0.00 | 0.23 | 0.23 | 78 | 1005.4 |
| 20260509014028 | 14 | 192 | 9.7 | 14.5 | 0.00 | 0.23 | 0.23 | 78 | 1005.5 |
| 20260509013527 | 14 | 210 | 8.0 | 11.3 | 0.00 | 0.23 | 0.23 | 77 | 1005.5 |
| 20260509013038 | 14 | 195 | 9.7 | 11.3 | 0.00 | 0.23 | 0.23 | 76 | 1005.5 |
| 20260509012527 | 14 | 200 | 8.0 | 12.9 | 0.00 | 0.23 | 0.23 | 75 | 1005.5 |
| 20260509012027 | 15 | 192 | 8.0 | 12.9 | 0.00 | 0.23 | 0.23 | 75 | 1005.5 |
| 20260509011527 | 15 | 199 | 8.0 | 12.9 | 0.00 | 0.23 | 0.23 | 73 | 1005.5 |
| 20260509011027 | 15 | 216 | 9.7 | 17.7 | 0.00 | 0.23 | 0.23 | 72 | 1005.5 |
| 20260509010526 | 15 | 215 | 11.3 | 17.7 | 0.00 | 0.23 | 0.23 | 71 | 1005.5 |
| 20260509010026 | 15 | 205 | 11.3 | 17.7 | 0.00 | 0.23 | 0.23 | 70 | 1005.4 |
| 20260509005526 | 15 | 215 | 11.3 | 19.3 | 0.00 | 0.23 | 0.23 | 69 | 1005.4 |
| 20260509005027 | 15 | 214 | 11.3 | 19.3 | 0.00 | 0.23 | 0.23 | 69 | 1005.4 |
| 20260509004526 | 15 | 200 | 12.9 | 19.3 | 0.00 | 0.23 | 0.23 | 68 | 1005.4 |
| 20260509004026 | 16 | 207 | 12.9 | 27.4 | 0.00 | 0.23 | 0.23 | 67 | 1005.4 |
| 20260509003526 | 16 | 234 | 16.1 | 27.4 | 0.00 | 0.23 | 0.23 | 67 | 1005.4 |
| 20260509003026 | 16 | 229 | 14.5 | 24.1 | 0.00 | 0.23 | 0.23 | 68 | 1005.4 |
| 20260509002526 | 16 | 190 | 14.5 | 27.4 | 0.00 | 0.23 | 0.23 | 69 | 1005.4 |
| 20260509002025 | 16 | 209 | 17.7 | 27.4 | 0.00 | 0.23 | 0.23 | 69 | 1005.3 |
| 20260509001525 | 16 | 222 | 16.1 | 24.1 | 0.00 | 0.23 | 0.23 | 69 | 1005.4 |
| 20260509001025 | 16 | 211 | 12.9 | 24.1 | 0.00 | 0.23 | 0.23 | 68 | 1005.3 |
| 20260509000524 | 17 | 203 | 14.5 | 27.4 | 0.00 | 0.23 | 0.23 | 68 | 1005.3 |
| 20260509000025 | 17 | 209 | 19.3 | 27.4 | 0.00 | 0.23 | 0.23 | 66 | 1005.2 |
| 20260508235524 | 17 | 205 | 16.1 | 25.7 | 0.00 | 0.23 | 0.23 | 66 | 1005.2 |
| 20260508235024 | 17 | 213 | 14.5 | 25.7 | 0.00 | 0.23 | 0.23 | 68 | 1005.4 |
| 20260508234524 | 17 | 217 | 16.1 | 25.7 | 0.00 | 0.23 | 0.23 | 67 | 1005.4 |
| 20260508234023 | 17 | 208 | 17.7 | 29.0 | 0.00 | 0.23 | 0.23 | 67 | 1005.4 |
| 20260508233524 | 17 | 185 | 20.9 | 29.0 | 0.00 | 0.23 | 0.23 | 67 | 1005.4 |
| 20260508233023 | 17 | 207 | 17.7 | 32.2 | 0.00 | 0.23 | 0.23 | 65 | 1005.4 |
| 20260508232522 | 18 | 213 | 16.1 | 32.2 | 0.00 | 0.23 | 0.23 | 64 | 1005.5 |
| 20260508232022 | 18 | 200 | 19.3 | 27.4 | 0.00 | 0.23 | 0.23 | 63 | 1005.5 |
| 20260508231522 | 18 | 209 | 16.1 | 27.4 | 0.00 | 0.23 | 0.23 | 62 | 1005.5 |
| 20260508231021 | 18 | 249 | 12.9 | 19.3 | 0.00 | 0.23 | 0.23 | 56 | 1005.5 |
| 20260508230521 | 18 | 222 | 11.3 | 25.7 | 0.00 | 0.23 | 0.23 | 58 | 1005.6 |
| 20260508230040 | 18 | 215 | 17.7 | 27.4 | 0.00 | 0.23 | 0.23 | 56 | 1005.5 |
| 20260508225520 | 18 | 215 | 14.5 | 27.4 | 0.00 | 0.23 | 0.23 | 60 | 1005.5 |
| 20260508225021 | 18 | 198 | 12.9 | 24.1 | 0.00 | 0.23 | 0.23 | 60 | 1005.5 |
| 20260508224547 | 18 | 237 | 12.9 | 20.9 | 0.00 | 0.23 | 0.23 | 59 | 1005.5 |
| 20260508224019 | 18 | 212 | 14.5 | 22.5 | 0.00 | 0.23 | 0.23 | 59 | 1005.5 |
| 20260508223521 | 18 | 202 | 11.3 | 22.5 | 0.00 | 0.23 | 0.23 | 60 | 1005.6 |
| 20260508223027 | 18 | 209 | 12.9 | 17.7 | 0.00 | 0.23 | 0.23 | 60 | 1005.6 |
| 20260508222517 | 18 | 251 | 12.9 | 17.7 | 0.00 | 0.23 | 0.23 | 62 | 1005.6 |
| 20260508222017 | 18 | 175 | 12.9 | 22.5 | 0.00 | 0.23 | 0.23 | 60 | 1005.6 |
| 20260508221516 | 18 | 244 | 11.3 | 22.5 | 0.00 | 0.23 | 0.23 | 60 | 1005.7 |
| 20260508221022 | 18 | 244 | 11.3 | 19.3 | 0.00 | 0.23 | 0.23 | 62 | 1005.7 |
| 20260508220516 | 18 | 236 | 11.3 | 19.3 | 0.00 | 0.23 | 0.23 | 61 | 1005.7 |
| 20260508220015 | 18 | 219 | 9.7 | 17.7 | 0.00 | 0.23 | 0.23 | 60 | 1005.7 |
| 20260508215512 | 18 | 230 | 9.7 | 17.7 | 0.00 | 0.23 | 0.23 | 61 | 1005.7 |
| 20260508215011 | 18 | 238 | 11.3 | 22.5 | 0.00 | 0.23 | 0.23 | 61 | 1005.7 |
| 20260508214511 | 18 | 272 | 8.0 | 22.5 | 0.00 | 0.23 | 0.23 | 64 | 1005.7 |
| 20260508214014 | 18 | 252 | 6.4 | 16.1 | 0.00 | 0.23 | 0.23 | 62 | 1005.8 |
| 20260508213509 | 18 | 237 | 11.3 | 16.1 | 0.00 | 0.23 | 0.23 | 61 | 1005.9 |
| 20260508213008 | 18 | 249 | 9.7 | 19.3 | 0.00 | 0.23 | 0.23 | 63 | 1006.0 |
| 20260508212508 | 18 | 224 | 11.3 | 19.3 | 0.00 | 0.23 | 0.23 | 64 | 1006.0 |
| 20260508212007 | 18 | 234 | 8.0 | 20.9 | 0.00 | 0.23 | 0.23 | 64 | 1006.0 |
| 20260508211509 | 18 | 222 | 14.5 | 20.9 | 0.00 | 0.23 | 0.23 | 63 | 1006.0 |
| 20260508211007 | 18 | 217 | 9.7 | 14.5 | 0.00 | 0.23 | 0.23 | 61 | 1005.9 |
| 20260508210510 | 18 | 264 | 9.7 | 19.3 | 0.00 | 0.23 | 0.23 | 63 | 1006.0 |
| 20260508210005 | 18 | 236 | 12.9 | 19.3 | 0.00 | 0.23 | 0.23 | 65 | 1006.0 |
| 20260508205503 | 17 | 214 | 12.9 | 16.1 | 0.00 | 0.23 | 0.23 | 66 | 1006.0 |
| 20260508205003 | 17 | 235 | 11.3 | 19.3 | 0.00 | 0.23 | 0.23 | 66 | 1006.1 |
| 20260508204508 | 17 | 221 | 11.3 | 19.3 | 0.00 | 0.23 | 0.23 | 68 | 1006.2 |
| 20260508204002 | 17 | 219 | 9.7 | 20.9 | 0.00 | 0.23 | 0.23 | 67 | 1006.2 |
| 20260508203502 | 17 | 219 | 11.3 | 20.9 | 0.00 | 0.23 | 0.23 | 67 | 1006.2 |
| 20260508203116 | 17 | 230 | 14.5 | 22.5 | 0.00 | 0.23 | 0.23 | 68 | 1006.2 |
| 20260508202601 | 17 | 231 | 14.5 | 22.5 | 0.00 | 0.23 | 0.23 | 67 | 1006.3 |
| 20260508202107 | 17 | 215 | 17.7 | 22.5 | 0.00 | 0.23 | 0.23 | 67 | 1006.3 |
| 20260508201600 | 17 | 205 | 12.9 | 20.9 | 0.00 | 0.23 | 0.23 | 68 | 1006.5 |
| 20260508201059 | 17 | 228 | 12.9 | 27.4 | 0.00 | 0.23 | 0.23 | 67 | 1006.5 |
| 20260508200558 | 17 | 208 | 14.5 | 22.5 | 0.00 | 0.23 | 0.23 | 69 | 1006.6 |
| 20260508200057 | 17 | 212 | 11.3 | 22.5 | 0.00 | 0.23 | 0.23 | 69 | 1006.7 |
| 20260508195557 | 17 | 198 | 14.5 | 22.5 | 0.00 | 0.23 | 0.23 | 65 | 1006.8 |
| 20260508195056 | 17 | 204 | 14.5 | 22.5 | 0.00 | 0.23 | 0.23 | 66 | 1006.9 |
| 20260508194556 | 17 | 225 | 12.9 | 22.5 | 0.00 | 0.23 | 0.23 | 66 | 1006.9 |
| 20260508194059 | 17 | 211 | 14.5 | 22.5 | 0.00 | 0.23 | 0.23 | 65 | 1006.9 |
| 20260508193555 | 17 | 191 | 12.9 | 24.1 | 0.00 | 0.23 | 0.23 | 67 | 1007.0 |
| 20260508193128 | 17 | 230 | 14.5 | 24.1 | 0.00 | 0.23 | 0.23 | 66 | 1007.0 |
| 20260508192555 | 17 | 196 | 16.1 | 24.1 | 0.00 | 0.23 | 0.23 | 68 | 1007.0 |
| 20260508192054 | 17 | 183 | 14.5 | 24.1 | 0.00 | 0.23 | 0.23 | 67 | 1007.0 |
| 20260508191554 | 17 | 202 | 12.9 | 19.3 | 0.00 | 0.23 | 0.23 | 65 | 1007.0 |
| 20260508191053 | 17 | 237 | 9.7 | 19.3 | 0.00 | 0.23 | 0.23 | 68 | 1007.1 |
| 20260508190553 | 17 | 257 | 12.9 | 19.3 | 0.00 | 0.23 | 0.23 | 66 | 1007.1 |
| 20260508190054 | 17 | 227 | 9.7 | 16.1 | 0.00 | 0.23 | 0.23 | 65 | 1007.1 |
| 20260508185654 | 17 | 222 | 8.0 | 14.5 | 0.00 | 0.23 | 0.23 | 65 | 1007.1 |
| 20260508185053 | 17 | 248 | 8.0 | 17.7 | 0.00 | 0.23 | 0.23 | 67 | 1007.2 |
| 20260508184614 | 17 | 224 | 11.3 | 19.3 | 0.00 | 0.23 | 0.23 | 66 | 1007.2 |
| 20260508184052 | 17 | 222 | 11.3 | 20.9 | 0.00 | 0.23 | 0.23 | 67 | 1007.3 |
| 20260508183550 | 17 | 211 | 14.5 | 20.9 | 0.00 | 0.23 | 0.23 | 68 | 1007.3 |
| 20260508183051 | 17 | 198 | 11.3 | 17.7 | 0.00 | 0.23 | 0.23 | 67 | 1007.5 |
| 20260508182549 | 17 | 207 | 12.9 | 17.7 | 0.00 | 0.23 | 0.23 | 67 | 1007.6 |
| 20260508182048 | 17 | 221 | 9.7 | 17.7 | 0.00 | 0.23 | 0.23 | 69 | 1007.6 |
| 20260508181548 | 16 | 230 | 9.7 | 17.7 | 0.00 | 0.23 | 0.23 | 71 | 1007.7 |
| 20260508181048 | 16 | 221 | 9.7 | 16.1 | 0.00 | 0.23 | 0.23 | 70 | 1007.9 |
| 20260508180546 | 16 | 257 | 6.4 | 14.5 | 0.00 | 0.23 | 0.23 | 68 | 1007.8 |
| 20260508180056 | 16 | 211 | 8.0 | 11.3 | 0.00 | 0.23 | 0.23 | 65 | 1007.9 |
| 20260508175546 | 17 | 267 | 4.8 | 11.3 | 0.00 | 0.23 | 0.23 | 68 | 1007.8 |
| 20260508175046 | 16 | 227 | 6.4 | 11.3 | 0.00 | 0.23 | 0.23 | 64 | 1007.9 |
| 20260508174601 | 16 | 261 | 3.2 | 11.3 | 0.00 | 0.23 | 0.23 | 66 | 1007.8 |
| 20260508174045 | 16 | 221 | 4.8 | 11.3 | 0.00 | 0.23 | 0.23 | 64 | 1007.9 |
| 20260508173544 | 16 | 234 | 4.8 | 11.3 | 0.00 | 0.23 | 0.23 | 65 | 1007.9 |
| 20260508173043 | 17 | 219 | 4.8 | 11.3 | 0.00 | 0.23 | 0.23 | 64 | 1008.1 |
| 20260508172543 | 17 | 201 | 4.8 | 11.3 | 0.00 | 0.23 | 0.23 | 65 | 1008.2 |
| 20260508172042 | 16 | 258 | 4.8 | 11.3 | 0.00 | 0.23 | 0.23 | 64 | 1008.0 |
| 20260508171607 | 16 | 265 | 4.8 | 14.5 | 0.00 | 0.23 | 0.23 | 67 | 1008.2 |
| 20260508171041 | 16 | 238 | 6.4 | 14.5 | 0.00 | 0.23 | 0.23 | 65 | 1008.4 |
| 20260508170541 | 16 | 286 | 4.8 | 11.3 | 0.00 | 0.23 | 0.23 | 65 | 1008.4 |
| 20260508170041 | 16 | 243 | 4.8 | 11.3 | 0.00 | 0.23 | 0.23 | 66 | 1008.5 |
| 20260508165639 | 16 | 255 | 8.0 | 16.1 | 0.00 | 0.23 | 0.23 | 66 | 1008.6 |
| 20260508165038 | 17 | 237 | 6.4 | 16.1 | 0.00 | 0.23 | 0.23 | 65 | 1008.7 |
| 20260508164540 | 17 | 228 | 9.7 | 16.1 | 0.00 | 0.23 | 0.23 | 65 | 1008.7 |
| 20260508164037 | 17 | 178 | 9.7 | 20.9 | 0.00 | 0.23 | 0.23 | 64 | 1008.8 |
| 20260508163536 | 17 | 188 | 12.9 | 19.3 | 0.00 | 0.23 | 0.23 | 67 | 1008.9 |
| 20260508163036 | 17 | 198 | 8.0 | 22.5 | 0.00 | 0.23 | 0.23 | 66 | 1008.9 |
| 20260508162536 | 17 | 227 | 11.3 | 22.5 | 0.00 | 0.23 | 0.23 | 65 | 1009.0 |